Tracking 35030 objects as of 9-Aug-2026
HD Live streaming from Space Station
objects crossing your sky now

COSMOS 1413 (GLONASS)

Track COSMOS 1413 (GLONASS) now!
COSMOS 1413 (GLONASS) is classified as:


NORAD ID: 13603
Int'l Code: 1982-100A
Launch date: October 12, 1982
Source: Commonwealth of Independent States (former USSR) (CIS)
Launch site: TYURATAM MISSILE AND SPACE COMPLEX (TTMTR)
Your satellite tracking list
Your tracking list is empty




NASA's NSSDC Master Catalog

Two Line Element Set (TLE):
1 13603U 82100A   26216.60808792  .00000000  00000-0  00000-0 0  9991
2 13603  64.9098  65.1830 0008287  27.4491 305.8934  2.13866760342208
Source of the keplerian elements: AFSPC